Year,Month,Day,Hour,Minute,Value (Times are PST for temperature in C)
2013,03,24,00,00,-5.30
2013,03,24,00,01,-5.40
2013,03,24,00,02,-5.40
2013,03,24,00,03,-5.50
2013,03,24,00,04,-5.50
2013,03,24,00,05,-5.60
2013,03,24,00,06,-5.60
2013,03,24,00,07,-5.70
2013,03,24,00,08,-5.70
2013,03,24,00,09,-5.70
2013,03,24,00,10,-5.70
2013,03,24,00,11,-5.70
2013,03,24,00,12,-5.80
2013,03,24,00,13,-5.80
2013,03,24,00,14,-5.90
2013,03,24,00,15,-5.90
2013,03,24,00,16,-5.90
2013,03,24,00,17,-6.00
2013,03,24,00,18,-6.10
2013,03,24,00,19,-6.10
2013,03,24,00,20,-6.10
2013,03,24,00,21,-6.20
2013,03,24,00,22,-6.20
2013,03,24,00,23,-6.20
2013,03,24,00,24,-6.20
2013,03,24,00,25,-6.30
2013,03,24,00,26,-6.30
2013,03,24,00,27,-6.30
2013,03,24,00,28,-6.30
2013,03,24,00,29,-6.30
2013,03,24,00,30,-6.40
2013,03,24,00,31,-6.40
2013,03,24,00,32,-6.40
2013,03,24,00,33,-6.40
2013,03,24,00,34,-6.50
2013,03,24,00,35,-6.50
2013,03,24,00,36,-6.50
2013,03,24,00,37,-6.50
2013,03,24,00,38,-6.50
2013,03,24,00,39,-6.50
2013,03,24,00,40,-6.60
2013,03,24,00,41,-6.60
2013,03,24,00,42,-6.60
2013,03,24,00,43,-6.60
2013,03,24,00,44,-6.60
2013,03,24,00,45,-6.60
2013,03,24,00,46,-6.60
2013,03,24,00,47,-6.60
2013,03,24,00,48,-6.60
2013,03,24,00,49,-6.60
2013,03,24,00,50,-6.70
2013,03,24,00,51,-6.70
2013,03,24,00,52,-6.70
2013,03,24,00,53,-6.70
2013,03,24,00,54,-6.70
2013,03,24,00,55,-6.70
2013,03,24,00,56,-6.70
2013,03,24,00,57,-6.70
2013,03,24,00,58,-6.70
2013,03,24,00,59,-6.70
2013,03,24,01,00,-6.80
2013,03,24,01,01,-6.80
2013,03,24,01,02,-6.80
2013,03,24,01,03,-6.80
2013,03,24,01,04,-6.80
2013,03,24,01,05,-6.80
2013,03,24,01,06,-6.80
2013,03,24,01,07,-6.80
2013,03,24,01,08,-6.80
2013,03,24,01,09,-6.90
2013,03,24,01,10,-6.90
2013,03,24,01,11,-6.90
2013,03,24,01,12,-6.90
2013,03,24,01,13,-6.90
2013,03,24,01,14,-6.90
2013,03,24,01,15,-6.90
2013,03,24,01,16,-6.90
2013,03,24,01,17,-6.90
2013,03,24,01,18,-6.90
2013,03,24,01,19,-6.90
2013,03,24,01,20,-6.90
2013,03,24,01,21,-6.90
2013,03,24,01,22,-6.90
2013,03,24,01,23,-7.00
2013,03,24,01,24,-7.00
2013,03,24,01,25,-7.00
2013,03,24,01,26,-7.00
2013,03,24,01,27,-7.00
2013,03,24,01,28,-7.00
2013,03,24,01,29,-7.00
2013,03,24,01,30,-7.00
2013,03,24,01,31,-7.10
2013,03,24,01,32,-7.10
2013,03,24,01,33,-7.10
2013,03,24,01,34,-7.10
2013,03,24,01,35,-7.10
2013,03,24,01,36,-7.20
2013,03,24,01,37,-7.20
2013,03,24,01,38,-7.20
2013,03,24,01,39,-7.20
2013,03,24,01,40,-7.20
2013,03,24,01,41,-7.20
2013,03,24,01,42,-7.20
2013,03,24,01,43,-7.20
2013,03,24,01,44,-7.20
2013,03,24,01,45,-7.20
2013,03,24,01,46,-7.20
2013,03,24,01,47,-7.20
2013,03,24,01,48,-7.20
2013,03,24,01,49,-7.20
2013,03,24,01,50,-7.20
2013,03,24,01,51,-7.30
2013,03,24,01,52,-7.30
2013,03,24,01,53,-7.30
2013,03,24,01,54,-7.30
2013,03,24,01,55,-7.30
2013,03,24,01,56,-7.30
2013,03,24,01,57,-7.30
2013,03,24,01,58,-7.30
2013,03,24,01,59,-7.30
2013,03,24,02,00,-7.30
2013,03,24,02,01,-7.30
2013,03,24,02,02,-7.30
2013,03,24,02,03,-7.30
2013,03,24,02,04,-7.30
2013,03,24,02,05,-7.40
2013,03,24,02,06,-7.40
2013,03,24,02,07,-7.40
2013,03,24,02,08,-7.40
2013,03,24,02,09,-7.40
2013,03,24,02,10,-7.40
2013,03,24,02,11,-7.40
2013,03,24,02,12,-7.40
2013,03,24,02,13,-7.40
2013,03,24,02,14,-7.50
2013,03,24,02,15,-7.50
2013,03,24,02,16,-7.50
2013,03,24,02,17,-7.60
2013,03,24,02,18,-7.60
2013,03,24,02,19,-7.60
2013,03,24,02,20,-7.60
2013,03,24,02,21,-7.60
2013,03,24,02,22,-7.60
2013,03,24,02,23,-7.60
2013,03,24,02,24,-7.60
2013,03,24,02,25,-7.60
2013,03,24,02,26,-7.60
2013,03,24,02,27,-7.60
2013,03,24,02,28,-7.60
2013,03,24,02,29,-7.50
2013,03,24,02,30,-7.50
2013,03,24,02,31,-7.60
2013,03,24,02,32,-7.60
2013,03,24,02,33,-7.60
2013,03,24,02,34,-7.60
2013,03,24,02,35,-7.60
2013,03,24,02,36,-7.60
2013,03,24,02,37,-7.60
2013,03,24,02,38,-7.60
2013,03,24,02,39,-7.60
2013,03,24,02,40,-7.70
2013,03,24,02,41,-7.70
2013,03,24,02,42,-7.70
2013,03,24,02,43,-7.70
2013,03,24,02,44,-7.70
2013,03,24,02,45,-7.70
2013,03,24,02,46,-7.70
2013,03,24,02,47,-7.70
2013,03,24,02,48,-7.70
2013,03,24,02,49,-7.70
2013,03,24,02,50,-7.70
2013,03,24,02,51,-7.70
2013,03,24,02,52,-7.80
2013,03,24,02,53,-7.80
2013,03,24,02,54,-7.80
2013,03,24,02,55,-7.80
2013,03,24,02,56,-7.80
2013,03,24,02,57,-7.90
2013,03,24,02,58,-7.90
2013,03,24,02,59,-7.90
2013,03,24,03,00,-7.90
2013,03,24,03,01,-7.90
2013,03,24,03,02,-8.00
2013,03,24,03,03,-8.00
2013,03,24,03,04,-8.00
2013,03,24,03,05,-8.10
2013,03,24,03,06,-8.10
2013,03,24,03,07,-8.10
2013,03,24,03,08,-8.10
2013,03,24,03,09,-8.10
2013,03,24,03,10,-8.20
2013,03,24,03,11,-8.20
2013,03,24,03,12,-8.20
2013,03,24,03,13,-8.20
2013,03,24,03,14,-8.20
2013,03,24,03,15,-8.20
2013,03,24,03,16,-8.20
2013,03,24,03,17,-8.20
2013,03,24,03,18,-8.20
2013,03,24,03,19,-8.20
2013,03,24,03,20,-8.20
2013,03,24,03,21,-8.20
2013,03,24,03,22,-8.20
2013,03,24,03,23,-8.20
2013,03,24,03,24,-8.20
2013,03,24,03,25,-8.30
2013,03,24,03,26,-8.20
2013,03,24,03,27,-8.20
2013,03,24,03,28,-8.20
2013,03,24,03,29,-8.20
2013,03,24,03,30,-8.20
2013,03,24,03,31,-8.20
2013,03,24,03,32,-8.20
2013,03,24,03,33,-8.20
2013,03,24,03,34,-8.20
2013,03,24,03,35,-8.20
2013,03,24,03,36,-8.20
2013,03,24,03,37,-8.20
2013,03,24,03,38,-8.20
2013,03,24,03,39,-8.20
2013,03,24,03,40,-8.20
2013,03,24,03,41,-8.20
2013,03,24,03,42,-8.20
2013,03,24,03,43,-8.30
2013,03,24,03,44,-8.30
2013,03,24,03,45,-8.30
2013,03,24,03,46,-8.30
2013,03,24,03,47,-8.30
2013,03,24,03,48,-8.30
2013,03,24,03,49,-8.30
2013,03,24,03,50,-8.30
2013,03,24,03,51,-8.40
2013,03,24,03,52,-8.40
2013,03,24,03,53,-8.40
2013,03,24,03,54,-8.40
2013,03,24,03,55,-8.30
2013,03,24,03,56,-8.30
2013,03,24,03,57,-8.30
2013,03,24,03,58,-8.30
2013,03,24,03,59,-8.30
2013,03,24,04,00,-8.30
2013,03,24,04,01,-8.30
2013,03,24,04,02,-8.30
2013,03,24,04,03,-8.30
2013,03,24,04,04,-8.30
2013,03,24,04,05,-8.30
2013,03,24,04,06,-8.30
2013,03,24,04,07,-8.30
2013,03,24,04,08,-8.30
2013,03,24,04,09,-8.30
2013,03,24,04,10,-8.30
2013,03,24,04,11,-8.30
2013,03,24,04,12,-8.40
2013,03,24,04,13,-8.40
2013,03,24,04,14,-8.40
2013,03,24,04,15,-8.40
2013,03,24,04,16,-8.40
2013,03,24,04,17,-8.40
2013,03,24,04,18,-8.40
2013,03,24,04,19,-8.40
2013,03,24,04,20,-8.30
2013,03,24,04,21,-8.30
2013,03,24,04,22,-8.30
2013,03,24,04,23,-8.30
2013,03,24,04,24,-8.40
2013,03,24,04,25,-8.40
2013,03,24,04,26,-8.40
2013,03,24,04,27,-8.50
2013,03,24,04,28,-8.50
2013,03,24,04,29,-8.60
2013,03,24,04,30,-8.60
2013,03,24,04,31,-8.70
2013,03,24,04,32,-8.70
2013,03,24,04,33,-8.70
2013,03,24,04,34,-8.70
2013,03,24,04,35,-8.80
2013,03,24,04,36,-8.80
2013,03,24,04,37,-8.80
2013,03,24,04,38,-8.80
2013,03,24,04,39,-8.80
2013,03,24,04,40,-8.80
2013,03,24,04,41,-8.80
2013,03,24,04,42,-8.80
2013,03,24,04,43,-8.80
2013,03,24,04,44,-8.80
2013,03,24,04,45,-8.80
2013,03,24,04,46,-8.80
2013,03,24,04,47,-8.80
2013,03,24,04,48,-8.90
2013,03,24,04,49,-8.90
2013,03,24,04,50,-8.90
2013,03,24,04,51,-9.00
2013,03,24,04,52,-9.00
2013,03,24,04,53,-9.00
2013,03,24,04,54,-9.00
2013,03,24,04,55,-9.00
2013,03,24,04,56,-9.10
2013,03,24,04,57,-9.10
2013,03,24,04,58,-9.00
2013,03,24,04,59,-9.10
2013,03,24,05,00,-9.00
2013,03,24,05,01,-9.10
2013,03,24,05,02,-9.10
2013,03,24,05,03,-9.00
2013,03,24,05,04,-9.00
2013,03,24,05,05,-9.00
2013,03,24,05,06,-9.00
2013,03,24,05,07,-8.90
2013,03,24,05,08,-8.90
2013,03,24,05,09,-8.90
2013,03,24,05,10,-8.90
2013,03,24,05,11,-8.90
2013,03,24,05,12,-8.90
2013,03,24,05,13,-8.90
2013,03,24,05,14,-8.90
2013,03,24,05,15,-8.90
2013,03,24,05,16,-9.00
2013,03,24,05,17,-9.00
2013,03,24,05,18,-9.10
2013,03,24,05,19,-9.10
2013,03,24,05,20,-9.20
2013,03,24,05,21,-9.20
2013,03,24,05,22,-9.20
2013,03,24,05,23,-9.20
2013,03,24,05,24,-9.30
2013,03,24,05,25,-9.30
2013,03,24,05,26,-9.30
2013,03,24,05,27,-9.30
2013,03,24,05,28,-9.30
2013,03,24,05,29,-9.30
2013,03,24,05,30,-9.30
2013,03,24,05,31,-9.40
2013,03,24,05,32,-9.40
2013,03,24,05,33,-9.40
2013,03,24,05,34,-9.40
2013,03,24,05,35,-9.40
2013,03,24,05,36,-9.40
2013,03,24,05,37,-9.40
2013,03,24,05,38,-9.40
2013,03,24,05,39,-9.40
2013,03,24,05,40,-9.40
2013,03,24,05,41,-9.40
2013,03,24,05,42,-9.40
2013,03,24,05,43,-9.40
2013,03,24,05,44,-9.40
2013,03,24,05,45,-9.40
2013,03,24,05,46,-9.40
2013,03,24,05,47,-9.40
2013,03,24,05,48,-9.40
2013,03,24,05,49,-9.40
2013,03,24,05,50,-9.50
2013,03,24,05,51,-9.50
2013,03,24,05,52,-9.50
2013,03,24,05,53,-9.50
2013,03,24,05,54,-9.50
2013,03,24,05,55,-9.50
2013,03,24,05,56,-9.50
2013,03,24,05,57,-9.50
2013,03,24,05,58,-9.50
2013,03,24,05,59,-9.50
2013,03,24,06,00,-9.50
2013,03,24,06,01,-9.50
2013,03,24,06,02,-9.40
2013,03,24,06,03,-9.40
2013,03,24,06,04,-9.40
2013,03,24,06,05,-9.40
2013,03,24,06,06,-9.40
2013,03,24,06,07,-9.40
2013,03,24,06,08,-9.50
2013,03,24,06,09,-9.50
2013,03,24,06,10,-9.50
2013,03,24,06,11,-9.50
2013,03,24,06,12,-9.50
2013,03,24,06,13,-9.50
2013,03,24,06,14,-9.50
2013,03,24,06,15,-9.50
2013,03,24,06,16,-9.50
2013,03,24,06,17,-9.60
2013,03,24,06,18,-9.60
2013,03,24,06,19,-9.60
2013,03,24,06,20,-9.60
2013,03,24,06,21,-9.60
2013,03,24,06,22,-9.60
2013,03,24,06,23,-9.60
2013,03,24,06,24,-9.60
2013,03,24,06,25,-9.60
2013,03,24,06,26,-9.60
2013,03,24,06,27,-9.60
2013,03,24,06,28,-9.60
2013,03,24,06,29,-9.60
2013,03,24,06,30,-9.70
2013,03,24,06,31,-9.70
2013,03,24,06,32,-9.70
2013,03,24,06,33,-9.70
2013,03,24,06,34,-9.70
2013,03,24,06,35,-9.70
2013,03,24,06,36,-9.70
2013,03,24,06,37,-9.70
2013,03,24,06,38,-9.70
2013,03,24,06,39,-9.70
2013,03,24,06,40,-9.70
2013,03,24,06,41,-9.70
2013,03,24,06,42,-9.70
2013,03,24,06,43,-9.70
2013,03,24,06,44,-9.70
2013,03,24,06,45,-9.70
2013,03,24,06,46,-9.80
2013,03,24,06,47,-9.80
2013,03,24,06,48,-9.70
2013,03,24,06,49,-9.80
2013,03,24,06,50,-9.80
2013,03,24,06,51,-9.80
2013,03,24,06,52,-9.80
2013,03,24,06,53,-9.80
2013,03,24,06,54,-9.80
2013,03,24,06,55,-9.80
2013,03,24,06,56,-9.80
2013,03,24,06,57,-9.80
2013,03,24,06,58,-9.80
2013,03,24,06,59,-9.80
2013,03,24,07,00,-9.80
2013,03,24,07,01,-9.80
2013,03,24,07,02,-9.80
2013,03,24,07,03,-9.80
2013,03,24,07,04,-9.80
2013,03,24,07,05,-9.80
2013,03,24,07,06,-9.80
2013,03,24,07,07,-9.80
2013,03,24,07,08,-9.80
2013,03,24,07,09,-9.80
2013,03,24,07,10,-9.70
2013,03,24,07,11,-9.70
2013,03,24,07,12,-9.60
2013,03,24,07,13,-9.60
2013,03,24,07,14,-9.60
2013,03,24,07,15,-9.60
2013,03,24,07,16,-9.60
2013,03,24,07,17,-9.60
2013,03,24,07,18,-9.60
2013,03,24,07,19,-9.60
2013,03,24,07,20,-9.60
2013,03,24,07,21,-9.60
2013,03,24,07,22,-9.70
2013,03,24,07,23,-9.70
2013,03,24,07,24,-9.70
2013,03,24,07,25,-9.70
2013,03,24,07,26,-9.70
2013,03,24,07,27,-9.70
2013,03,24,07,28,-9.70
2013,03,24,07,29,-9.70
2013,03,24,07,30,-9.70
2013,03,24,07,31,-9.70
2013,03,24,07,32,-9.70
2013,03,24,07,33,-9.70
2013,03,24,07,34,-9.70
2013,03,24,07,35,-9.70
2013,03,24,07,36,-9.70
2013,03,24,07,37,-9.70
2013,03,24,07,38,-9.80
2013,03,24,07,39,-9.70
2013,03,24,07,40,-9.70
2013,03,24,07,41,-9.80
2013,03,24,07,42,-9.80
2013,03,24,07,43,-9.70
2013,03,24,07,44,-9.70
2013,03,24,07,45,-9.70
2013,03,24,07,46,-9.80
2013,03,24,07,47,-9.80
2013,03,24,07,48,-9.80
2013,03,24,07,49,-9.80
2013,03,24,07,50,-9.80
2013,03,24,07,51,-9.80
2013,03,24,07,52,-9.80
2013,03,24,07,53,-9.80
2013,03,24,07,54,-9.80
2013,03,24,07,55,-9.80
2013,03,24,07,56,-9.80
2013,03,24,07,57,-9.80
2013,03,24,07,58,-9.80
2013,03,24,07,59,-9.80
2013,03,24,08,00,-9.80
2013,03,24,08,01,-9.80
2013,03,24,08,02,-9.80
2013,03,24,08,03,-9.80
2013,03,24,08,04,-9.80
2013,03,24,08,05,-9.80
2013,03,24,08,06,-9.80
2013,03,24,08,07,-9.80
2013,03,24,08,08,-9.80
2013,03,24,08,09,-9.80
2013,03,24,08,10,-9.70
2013,03,24,08,11,-9.70
2013,03,24,08,12,-9.70
2013,03,24,08,13,-9.70
2013,03,24,08,14,-9.70
2013,03,24,08,15,-9.70
2013,03,24,08,16,-9.70
2013,03,24,08,17,-9.80
2013,03,24,08,18,-9.80
2013,03,24,08,19,-9.80
2013,03,24,08,20,-9.80
2013,03,24,08,21,-9.80
2013,03,24,08,22,-9.80
2013,03,24,08,23,-9.80
2013,03,24,08,24,-9.80
2013,03,24,08,25,-9.80
2013,03,24,08,26,-9.80
2013,03,24,08,27,-9.80
2013,03,24,08,28,-9.80
2013,03,24,08,29,-9.80
2013,03,24,08,30,-9.80
2013,03,24,08,31,-9.80
2013,03,24,08,32,-9.80
2013,03,24,08,33,-9.80
2013,03,24,08,34,-9.80
2013,03,24,08,35,-9.80
2013,03,24,08,36,-9.80
2013,03,24,08,37,-9.80
2013,03,24,08,38,-9.80
2013,03,24,08,39,-9.80
2013,03,24,08,40,-9.80
2013,03,24,08,41,-9.80
2013,03,24,08,42,-9.80
2013,03,24,08,43,-9.80
2013,03,24,08,44,-9.80
2013,03,24,08,45,-9.80
2013,03,24,08,46,-9.80
2013,03,24,08,47,-9.80
2013,03,24,08,48,-9.80
2013,03,24,08,49,-9.80
2013,03,24,08,50,-9.80
2013,03,24,08,51,-9.80
2013,03,24,08,52,-9.80
2013,03,24,08,53,-9.80
2013,03,24,08,54,-9.80
2013,03,24,08,55,-9.80
2013,03,24,08,56,-9.80
2013,03,24,08,57,-9.80
2013,03,24,08,58,-9.80
2013,03,24,08,59,-9.80
2013,03,24,09,00,-9.80
2013,03,24,09,01,-9.80
2013,03,24,09,02,-9.80
2013,03,24,09,03,-9.80
2013,03,24,09,04,-9.70
2013,03,24,09,05,-9.70
2013,03,24,09,06,-9.70
2013,03,24,09,07,-9.70
2013,03,24,09,08,-9.70
2013,03,24,09,09,-9.70
2013,03,24,09,10,-9.70
2013,03,24,09,11,-9.70
2013,03,24,09,12,-9.70
2013,03,24,09,13,-9.70
2013,03,24,09,14,-9.70
2013,03,24,09,15,-9.70
2013,03,24,09,16,-9.70
2013,03,24,09,17,-9.70
2013,03,24,09,18,-9.70
2013,03,24,09,19,-9.70
2013,03,24,09,20,-9.70
2013,03,24,09,21,-9.70
2013,03,24,09,22,-9.70
2013,03,24,09,23,-9.70
2013,03,24,09,24,-9.70
2013,03,24,09,25,-9.70
2013,03,24,09,26,-9.70
2013,03,24,09,27,-9.70
2013,03,24,09,28,-9.70
2013,03,24,09,29,-9.70
2013,03,24,09,30,-9.70
2013,03,24,09,31,-9.70
2013,03,24,09,32,-9.70
2013,03,24,09,33,-9.70
2013,03,24,09,34,-9.70
2013,03,24,09,35,-9.70
2013,03,24,09,36,-9.70
2013,03,24,09,37,-9.70
2013,03,24,09,38,-9.70
2013,03,24,09,39,-9.70
2013,03,24,09,40,-9.70
2013,03,24,09,41,-9.60
2013,03,24,09,42,-9.60
2013,03,24,09,43,-9.60
2013,03,24,09,44,-9.60
2013,03,24,09,45,-9.60
2013,03,24,09,46,-9.60
2013,03,24,09,47,-9.60
2013,03,24,09,48,-9.60
2013,03,24,09,49,-9.60
2013,03,24,09,50,-9.60
2013,03,24,09,51,-9.60
2013,03,24,09,52,-9.60
2013,03,24,09,53,-9.50
2013,03,24,09,54,-9.50
2013,03,24,09,55,-9.50
2013,03,24,09,56,-9.50
2013,03,24,09,57,-9.40
2013,03,24,09,58,-9.40
2013,03,24,09,59,-9.40
2013,03,24,10,00,-9.40
2013,03,24,10,01,-9.40
2013,03,24,10,02,-9.40
2013,03,24,10,03,-9.40
2013,03,24,10,04,-9.40
2013,03,24,10,05,-9.40
2013,03,24,10,06,-9.40
2013,03,24,10,07,-9.40
2013,03,24,10,08,-9.40
2013,03,24,10,09,-9.30
2013,03,24,10,10,-9.30
2013,03,24,10,11,-9.30
2013,03,24,10,12,-9.30
2013,03,24,10,13,-9.30
2013,03,24,10,14,-9.30
2013,03,24,10,15,-9.30
2013,03,24,10,16,-9.30
2013,03,24,10,17,-9.30
2013,03,24,10,18,-9.30
2013,03,24,10,19,-9.30
2013,03,24,10,20,-9.30
2013,03,24,10,21,-9.30
2013,03,24,10,22,-9.30
2013,03,24,10,23,-9.30
2013,03,24,10,24,-9.30
2013,03,24,10,25,-9.30
2013,03,24,10,26,-9.20
2013,03,24,10,27,-9.20
2013,03,24,10,28,-9.20
2013,03,24,10,29,-9.20
2013,03,24,10,30,-9.20
2013,03,24,10,31,-9.20
2013,03,24,10,32,-9.10
2013,03,24,10,33,-9.10
2013,03,24,10,34,-9.10
2013,03,24,10,35,-9.10
2013,03,24,10,36,-9.10
2013,03,24,10,37,-9.00
2013,03,24,10,38,-9.00
2013,03,24,10,39,-9.00
2013,03,24,10,40,-9.00
2013,03,24,10,41,-9.00
2013,03,24,10,42,-9.00
2013,03,24,10,43,-9.00
2013,03,24,10,44,-9.00
2013,03,24,10,45,-8.90
2013,03,24,10,46,-8.90
2013,03,24,10,47,-8.90
2013,03,24,10,48,-8.90
2013,03,24,10,49,-8.90
2013,03,24,10,50,-8.90
2013,03,24,10,51,-8.90
2013,03,24,10,52,-8.80
2013,03,24,10,53,-8.80
2013,03,24,10,54,-8.80
2013,03,24,10,55,-8.80
2013,03,24,10,56,-8.80
2013,03,24,10,57,-8.80
2013,03,24,10,58,-8.80
2013,03,24,10,59,-8.80
2013,03,24,11,00,-8.80
2013,03,24,11,01,-8.80
2013,03,24,11,02,-8.80
2013,03,24,11,03,-8.80
2013,03,24,11,04,-8.80
2013,03,24,11,05,-8.80
2013,03,24,11,06,-8.80
2013,03,24,11,07,-8.80
2013,03,24,11,08,-8.80
2013,03,24,11,09,-8.80
2013,03,24,11,10,-8.80
2013,03,24,11,11,-8.70
2013,03,24,11,12,-8.70
2013,03,24,11,13,-8.70
2013,03,24,11,14,-8.70
2013,03,24,11,15,-8.70
2013,03,24,11,16,-8.70
2013,03,24,11,17,-8.70
2013,03,24,11,18,-8.70
2013,03,24,11,19,-8.70
2013,03,24,11,20,-8.70
2013,03,24,11,21,-8.70
2013,03,24,11,22,-8.70
2013,03,24,11,23,-8.60
2013,03,24,11,24,-8.60
2013,03,24,11,25,-8.60
2013,03,24,11,26,-8.60
2013,03,24,11,27,-8.60
2013,03,24,11,28,-8.50
2013,03,24,11,29,-8.50
2013,03,24,11,30,-8.50
2013,03,24,11,31,-8.50
2013,03,24,11,32,-8.40
2013,03,24,11,33,-8.40
2013,03,24,11,34,-8.40
2013,03,24,11,35,-8.40
2013,03,24,11,36,-8.40
2013,03,24,11,37,-8.40
2013,03,24,11,38,-8.40
2013,03,24,11,39,-8.40
2013,03,24,11,40,-8.40
2013,03,24,11,41,-8.40
2013,03,24,11,42,-8.40
2013,03,24,11,43,-8.40
2013,03,24,11,44,-8.40
2013,03,24,11,45,-8.30
2013,03,24,11,46,-8.30
2013,03,24,11,47,-8.30
2013,03,24,11,48,-8.30
2013,03,24,11,49,-8.30
2013,03,24,11,50,-8.30
2013,03,24,11,51,-8.30
2013,03,24,11,52,-8.30
2013,03,24,11,53,-8.20
2013,03,24,11,54,-8.20
2013,03,24,11,55,-8.20
2013,03,24,11,56,-8.20
2013,03,24,11,57,-8.20
2013,03,24,11,58,-8.20
2013,03,24,11,59,-8.20
2013,03,24,12,00,-8.20
2013,03,24,12,01,-8.20
2013,03,24,12,02,-8.20
2013,03,24,12,03,-8.20
2013,03,24,12,04,-8.20
2013,03,24,12,05,-8.20
2013,03,24,12,06,-8.20
2013,03,24,12,07,-8.20
2013,03,24,12,08,-8.20
2013,03,24,12,09,-8.10
2013,03,24,12,10,-8.10
2013,03,24,12,11,-8.10
2013,03,24,12,12,-8.10
2013,03,24,12,13,-8.10
2013,03,24,12,14,-8.00
2013,03,24,12,15,-8.00
2013,03,24,12,16,-8.00
2013,03,24,12,17,-7.90
2013,03,24,12,18,-7.90
2013,03,24,12,19,-7.90
2013,03,24,12,20,-7.80
2013,03,24,12,21,-7.80
2013,03,24,12,22,-7.80
2013,03,24,12,23,-7.80
2013,03,24,12,24,-7.70
2013,03,24,12,25,-7.70
2013,03,24,12,26,-7.70
2013,03,24,12,27,-7.70
2013,03,24,12,28,-7.60
2013,03,24,12,29,-7.60
2013,03,24,12,30,-7.60
2013,03,24,12,31,-7.60
2013,03,24,12,32,-7.60
2013,03,24,12,33,-7.60
2013,03,24,12,34,-7.60
2013,03,24,12,35,-7.50
2013,03,24,12,36,-7.50
2013,03,24,12,37,-7.50
2013,03,24,12,38,-7.50
2013,03,24,12,39,-7.50
2013,03,24,12,40,-7.50
2013,03,24,12,41,-7.50
2013,03,24,12,42,-7.50
2013,03,24,12,43,-7.50
2013,03,24,12,44,-7.50
2013,03,24,12,45,-7.40
2013,03,24,12,46,-7.40
2013,03,24,12,47,-7.40
2013,03,24,12,48,-7.30
2013,03,24,12,49,-7.30
2013,03,24,12,50,-7.30
2013,03,24,12,51,-7.30
2013,03,24,12,52,-7.30
2013,03,24,12,53,-7.20
2013,03,24,12,54,-7.20
2013,03,24,12,55,-7.20
2013,03,24,12,56,-7.20
2013,03,24,12,57,-7.20
2013,03,24,12,58,-7.20
2013,03,24,12,59,-7.20
2013,03,24,13,00,-7.10
2013,03,24,13,01,-7.10
2013,03,24,13,02,-7.10
2013,03,24,13,03,-7.00
2013,03,24,13,04,-7.00
2013,03,24,13,05,-7.00
2013,03,24,13,06,-6.90
2013,03,24,13,07,-6.90
2013,03,24,13,08,-6.90
2013,03,24,13,09,-6.90
2013,03,24,13,10,-6.80
2013,03,24,13,11,-6.80
2013,03,24,13,12,-6.80
2013,03,24,13,13,-6.80
2013,03,24,13,14,-6.80
2013,03,24,13,15,-6.80
2013,03,24,13,16,-6.80
2013,03,24,13,17,-6.80
2013,03,24,13,18,-6.80
2013,03,24,13,19,-6.80
2013,03,24,13,20,-6.80
2013,03,24,13,21,-6.70
2013,03,24,13,22,-6.70
2013,03,24,13,23,-6.70
2013,03,24,13,24,-6.70
2013,03,24,13,25,-6.60
2013,03,24,13,26,-6.60
2013,03,24,13,27,-6.50
2013,03,24,13,28,-6.50
2013,03,24,13,29,-6.40
2013,03,24,13,30,-6.40
2013,03,24,13,31,-6.30
2013,03,24,13,32,-6.30
2013,03,24,13,33,-6.20
2013,03,24,13,34,-6.20
2013,03,24,13,35,-6.20
2013,03,24,13,36,-6.20
2013,03,24,13,37,-6.10
2013,03,24,13,38,-6.10
2013,03,24,13,39,-6.10
2013,03,24,13,40,-6.10
2013,03,24,13,41,-6.00
2013,03,24,13,42,-6.00
2013,03,24,13,43,-5.90
2013,03,24,13,44,-5.90
2013,03,24,13,45,-5.90
2013,03,24,13,46,-5.80
2013,03,24,13,47,-5.80
2013,03,24,13,48,-5.80
2013,03,24,13,49,-5.80
2013,03,24,13,50,-5.80
2013,03,24,13,51,-5.80
2013,03,24,13,52,-5.80
2013,03,24,13,53,-5.80
2013,03,24,13,54,-5.70
2013,03,24,13,55,-5.80
2013,03,24,13,56,-5.80
2013,03,24,13,57,-5.80
2013,03,24,13,58,-5.80
2013,03,24,13,59,-5.80
2013,03,24,14,00,-5.80
2013,03,24,14,01,-5.80
2013,03,24,14,02,-5.70
2013,03,24,14,03,-5.70
2013,03,24,14,04,-5.70
2013,03,24,14,05,-5.70
2013,03,24,14,06,-5.70
2013,03,24,14,07,-5.70
2013,03,24,14,08,-5.70
2013,03,24,14,09,-5.70
2013,03,24,14,10,-5.70
2013,03,24,14,11,-5.70
2013,03,24,14,12,-5.70
2013,03,24,14,13,-5.60
2013,03,24,14,14,-5.60
2013,03,24,14,15,-5.60
2013,03,24,14,16,-5.60
2013,03,24,14,17,-5.50
2013,03,24,14,18,-5.50
2013,03,24,14,19,-5.50
2013,03,24,14,20,-5.50
2013,03,24,14,21,-5.50
2013,03,24,14,22,-5.50
2013,03,24,14,23,-5.40
2013,03,24,14,24,-5.40
2013,03,24,14,25,-5.30
2013,03,24,14,26,-5.30
2013,03,24,14,27,-5.30
2013,03,24,14,28,-5.20
2013,03,24,14,29,-5.20
2013,03,24,14,30,-5.10
2013,03,24,14,31,-5.10
2013,03,24,14,32,-5.00
2013,03,24,14,33,-4.90
2013,03,24,14,34,-4.90
2013,03,24,14,35,-4.80
2013,03,24,14,36,-4.80
2013,03,24,14,37,-4.70
2013,03,24,14,38,-4.70
2013,03,24,14,39,-4.60
2013,03,24,14,40,-4.60
2013,03,24,14,41,-4.60
2013,03,24,14,42,-4.50
2013,03,24,14,43,-4.50
2013,03,24,14,44,-4.50
2013,03,24,14,45,-4.40
2013,03,24,14,46,-4.40
2013,03,24,14,47,-4.40
2013,03,24,14,48,-4.30
2013,03,24,14,49,-4.30
2013,03,24,14,50,-4.30
2013,03,24,14,51,-4.30
2013,03,24,14,52,-4.20
2013,03,24,14,53,-4.20
2013,03,24,14,54,-4.20
2013,03,24,14,55,-4.10
2013,03,24,14,56,-4.10
2013,03,24,14,57,-4.10
2013,03,24,14,58,-4.10
2013,03,24,14,59,-4.00
2013,03,24,15,00,-4.00
2013,03,24,15,01,-4.00
2013,03,24,15,02,-3.90
2013,03,24,15,03,-3.90
2013,03,24,15,04,-3.90
2013,03,24,15,05,-3.80
2013,03,24,15,06,-3.80
2013,03,24,15,07,-3.80
2013,03,24,15,08,-3.80
2013,03,24,15,09,-3.70
2013,03,24,15,10,-3.70
2013,03,24,15,11,-3.70
2013,03,24,15,12,-3.60
2013,03,24,15,13,-3.60
2013,03,24,15,14,-3.60
2013,03,24,15,15,-3.50
2013,03,24,15,16,-3.50
2013,03,24,15,17,-3.40
2013,03,24,15,18,-3.40
2013,03,24,15,19,-3.40
2013,03,24,15,20,-3.30
2013,03,24,15,21,-3.30
2013,03,24,15,22,-3.30
2013,03,24,15,23,-3.30
2013,03,24,15,24,-3.30
2013,03,24,15,25,-3.30
2013,03,24,15,26,-3.20
2013,03,24,15,27,-3.20
2013,03,24,15,28,-3.20
2013,03,24,15,29,-3.20
2013,03,24,15,30,-3.20
2013,03,24,15,31,-3.10
2013,03,24,15,32,-3.10
2013,03,24,15,33,-3.00
2013,03,24,15,34,-3.00
2013,03,24,15,35,-2.90
2013,03,24,15,36,-2.90
2013,03,24,15,37,-2.90
2013,03,24,15,38,-2.80
2013,03,24,15,39,-2.80
2013,03,24,15,40,-2.70
2013,03,24,15,41,-2.70
2013,03,24,15,42,-2.60
2013,03,24,15,43,-2.60
2013,03,24,15,44,-2.50
2013,03,24,15,45,-2.50
2013,03,24,15,46,-2.40
2013,03,24,15,47,-2.30
2013,03,24,15,48,-2.30
2013,03,24,15,49,-2.20
2013,03,24,15,50,-2.10
2013,03,24,15,51,-2.10
2013,03,24,15,52,-2.00
2013,03,24,15,53,-1.90
2013,03,24,15,54,-1.90
2013,03,24,15,55,-1.80
2013,03,24,15,56,-1.80
2013,03,24,15,57,-1.80
2013,03,24,15,58,-1.80
2013,03,24,15,59,-1.70
2013,03,24,16,00,-1.70
2013,03,24,16,01,-1.60
2013,03,24,16,02,-1.60
2013,03,24,16,03,-1.50
2013,03,24,16,04,-1.50
2013,03,24,16,05,-1.40
2013,03,24,16,06,-1.40
2013,03,24,16,07,-1.40
2013,03,24,16,08,-1.30
2013,03,24,16,09,-1.30
2013,03,24,16,10,-1.20
2013,03,24,16,11,-1.20
2013,03,24,16,12,-1.20
2013,03,24,16,13,-1.10
2013,03,24,16,14,-1.10
2013,03,24,16,15,-1.10
2013,03,24,16,16,-1.00
2013,03,24,16,17,-1.00
2013,03,24,16,18,-0.90
2013,03,24,16,19,-0.90
2013,03,24,16,20,-0.80
2013,03,24,16,21,-0.80
2013,03,24,16,22,-0.70
2013,03,24,16,23,-0.70
2013,03,24,16,24,-0.70
2013,03,24,16,25,-0.60
2013,03,24,16,26,-0.60
2013,03,24,16,27,-0.50
2013,03,24,16,28,-0.50
2013,03,24,16,29,-0.40
2013,03,24,16,30,-0.40
2013,03,24,16,31,-0.30
2013,03,24,16,32,-0.30
2013,03,24,16,33,-0.20
2013,03,24,16,34,-0.20
2013,03,24,16,35,-0.10
2013,03,24,16,36,0.00
2013,03,24,16,37,0.10
2013,03,24,16,38,0.20
2013,03,24,16,39,0.30
2013,03,24,16,40,0.40
2013,03,24,16,41,0.50
2013,03,24,16,42,0.60
2013,03,24,16,43,0.80
2013,03,24,16,44,1.00
2013,03,24,16,45,1.20
2013,03,24,16,46,1.40
2013,03,24,16,47,1.60
2013,03,24,16,48,1.70
2013,03,24,16,49,1.90
2013,03,24,16,50,2.10
2013,03,24,16,51,2.20
2013,03,24,16,52,2.30
2013,03,24,16,53,2.40
2013,03,24,16,54,2.50
2013,03,24,16,55,2.60
2013,03,24,16,56,2.60
2013,03,24,16,57,2.70
2013,03,24,16,58,2.80
2013,03,24,16,59,2.80
2013,03,24,17,00,2.80
2013,03,24,17,01,2.80
2013,03,24,17,02,2.90
2013,03,24,17,03,2.90
2013,03,24,17,04,3.00
2013,03,24,17,05,3.00
2013,03,24,17,06,3.00
2013,03,24,17,07,3.00
2013,03,24,17,08,3.00
2013,03,24,17,09,3.00
2013,03,24,17,10,3.00
2013,03,24,17,11,3.00
2013,03,24,17,12,3.00
2013,03,24,17,13,3.00
2013,03,24,17,14,3.00
2013,03,24,17,15,3.00
2013,03,24,17,16,3.00
2013,03,24,17,17,3.00
2013,03,24,17,18,3.00
2013,03,24,17,19,3.00
2013,03,24,17,20,3.00
2013,03,24,17,21,3.00